Flag Weather past 2 weeks in Ghent, Belgium

Now
49 °F

Fog.


Feels Like: 49 °F
Forecast: 45 / 51 °F
Wind: 2 mph from Southeast

Location: Munte

Current Time: Nov 27, 2014 at 12:40:42 AM

Latest Report: Nov 27, 2014 at 12:00 AM


Visibility: 1 mi

Pressure: 29.82 "Hg

Humidity: 100%

Dew point: 49 °F

Location of GhentLocation

Historic Weather in Ghent — Graph

°F

Ghent temperature yesterday

Maximum temperature yesterday: 49 °F (at 11:00 PM)
Minimum temperature yesterday: 42 °F (at 5:00 AM)
Average temperature yesterday: 45 °F

Past Weeks' High & Low Weather Summary

 TemperatureHumidityPressure
High57 °F (Nov 22, 3:00 PM)100% (Nov 15, 5:00 AM)30.35 "Hg (Nov 15, 5:00 AM)
Low35 °F (Nov 25, 6:00 AM)71% (Nov 24, 2:00 PM)29.47 "Hg (Nov 12, 3:00 AM)
Average47 °F91%29.91 "Hg
* Reported Nov 11 11:00 PM — Nov 26 11:00 PM, Ghent, Weather by CustomWeather, © 2014

Note: Actual official high and low records may vary slightly from our data, if they occured in-between our weather recording intervals... More about our weather records

Advertising

Ghent weather history for previous 24 hours

 ConditionsComfort  
Time TempWeatherWind HumidityBarometerVisibility
11:00 PM
Nov 26
49 °FFog.N/A100%29.82 "Hg1 mi
10:00 PM49 °FCool.N/A100%29.83 "Hg1 mi
9:00 PM48 °FDuststorm.N/A100%29.84 "Hg1 mi
8:00 PM47 °FDuststorm.N/A100%29.85 "Hg1 mi
7:00 PM47 °FFog.N/A100%29.85 "Hg1 mi
6:00 PM47 °FFog.N/A99%29.86 "Hg1 mi
5:00 PM46 °FFog.2 mph98%29.85 "Hg1 mi
4:00 PM46 °FFog.2 mph98%29.87 "Hg1 mi
3:00 PM46 °FFog.2 mph96%29.88 "Hg2 mi
2:00 PM46 °FCool.2 mph93%29.88 "Hg3 mi
1:00 PM47 °FCool.2 mph90%29.90 "Hg4 mi
12:00 PM46 °FLight rain. Cloudy.2 mph92%29.91 "Hg4 mi
11:00 AM46 °FDrizzle. Cloudy.N/A90%29.93 "Hg5 mi
10:00 AM43 °FQuite cool.N/A92%29.94 "Hg4 mi
9:00 AM42 °FQuite cool.2 mph91%29.94 "Hg5 mi
8:00 AM42 °FQuite cool.2 mph90%29.94 "Hg6 mi
7:00 AM42 °FQuite cool.3 mph89%29.95 "Hg6 mi
6:00 AM42 °FQuite cool.3 mph88%29.96 "Hg7 mi
5:00 AM42 °FQuite cool.2 mph88%29.96 "Hg7 mi
3:00 AM43 °FQuite cool.2 mph83%29.99 "Hg11 mi
2:00 AM43 °FQuite cool.2 mph82%30.01 "Hg12 mi
1:00 AM43 °FQuite cool.2 mph81%30.03 "Hg13 mi
12:00 AM44 °FQuite cool.3 mph78%30.05 "Hg14 mi
Weather by CustomWeather, © 2014

See weather overviewHow to use our weather pages